CW2888 Weather Reports


Display with metric or nautical units.
time (UTC)temp
F
wind
direction
speed
MPH
gust
MPH
rain 1hr
in
rain 24hr
in
rain mn
in
humidity
%
barometer
mb
20260505124308 61 346 5.0 13.0 0.00 0.00 0.00 50 1013.4
20260505123808 61 33 5.0 10.0 0.00 0.00 0.00 51 1013.4
20260505123308 61 304 4.0 9.0 0.00 0.00 0.00 52 1013.3
20260505122808 60 8 3.0 12.0 0.00 0.00 0.00 54 1013.3
20260505121808 60 14 3.0 9.0 0.00 0.00 0.00 54 1013.4
20260505120808 58 352 5.0 12.0 0.00 0.00 0.00 54 1013.4
20260505120308 59 299 4.0 8.0 0.00 0.00 0.00 55 1013.4
20260505115808 60 41 4.0 12.0 0.00 0.00 0.00 54 1013.4
20260505114808 60 26 4.0 12.0 0.00 0.00 0.00 55 1013.3
20260505114308 59 7 5.0 12.0 0.00 0.00 0.00 54 1013.4
20260505113808 58 314 2.0 9.0 0.00 0.00 0.00 57 1013.4
20260505113308 59 28 3.0 10.0 0.00 0.00 0.00 57 1013.4
20260505112807 61 25 3.0 10.0 0.00 0.00 0.00 58 1013.5
20260505112308 60 354 2.0 9.0 0.00 0.00 0.00 58 1013.5
20260505111807 58 50 1.0 3.0 0.00 0.00 0.00 60 1013.7
20260505110308 58 62 3.0 10.0 0.00 0.00 0.00 62 1013.6
20260505101808 57 43 3.0 12.0 0.00 0.00 0.00 63 1014.0
20260505101308 58 327 2.0 6.0 0.00 0.00 0.00 63 1014.0
20260505100307 57 344 4.0 9.0 0.00 0.00 0.00 62 1014.0
20260505095308 59 1 3.0 8.0 0.00 0.00 0.00 63 1014.1
20260505094808 58 330 2.0 10.0 0.00 0.00 0.00 63 1014.2
20260505094307 58 19 4.0 13.0 0.00 0.00 0.00 63 1014.1
20260505092307 56 31 3.0 7.0 0.00 0.00 0.00 65 1014.0
20260505091308 55 63 3.0 10.0 0.00 0.00 0.00 65 1014.1
20260505090308 55 350 4.0 10.0 0.00 0.00 0.00 66 1014.1
20260505085308 54 47 5.0 10.0 0.00 0.00 0.00 68 1014.3
20260505084308 53 12 3.0 10.0 0.00 0.00 0.00 69 1014.3
20260505083808 53 68 5.0 9.0 0.00 0.00 0.00 70 1014.4
20260505083310 53 53 3.0 9.0 0.00 0.00 0.00 72 1014.4
20260505082859 53 58 3.0 8.0 0.00 0.00 0.00 72 1014.4
20260505082308 53 47 2.0 5.0 0.00 0.00 0.00 73 1014.5
20260505081309 52 30 3.0 8.0 0.00 0.00 0.00 75 1014.5
20260505080808 51 21 2.0 6.0 0.00 0.00 0.00 76 1014.5
20260505080308 51 54 2.0 6.0 0.00 0.00 0.00 78 1014.6
20260505075808 51 46 2.0 6.0 0.00 0.00 0.00 79 1014.6
20260505074808 51 35 2.0 5.0 0.00 0.00 0.00 80 1014.6
20260505074308 50 17 1.0 3.0 0.00 0.00 0.00 81 1014.6
20260505073307 50 343 1.0 6.0 0.00 0.00 0.00 81 1014.5
20260505072808 50 45 2.0 5.0 0.00 0.00 0.00 81 1014.5
20260505072307 50 25 2.0 3.0 0.00 0.00 0.00 81 1014.5
20260505071808 50 28 1.0 5.0 0.00 0.00 0.00 81 1014.5
20260505070808 50 15 1.0 5.0 0.00 0.00 0.00 81 1014.5
20260505065808 50 12 3.0 8.0 0.00 0.00 0.00 81 1014.6
20260505064808 50 5 3.0 8.0 0.00 0.00 0.00 81 1014.4
20260505064308 50 29 2.0 5.0 0.00 0.00 0.00 81 1014.4
20260505063808 50 358 3.0 7.0 0.00 0.00 0.00 80 1014.5
20260505062307 49 34 3.0 7.0 0.00 0.00 0.00 82 1014.3
20260505061807 49 59 2.0 5.0 0.00 0.00 0.00 83 1014.4
20260505060807 49 5 3.0 8.0 0.00 0.00 0.00 84 1014.3
20260505060307 49 48 3.0 6.0 0.00 0.00 0.00 84 1014.3
20260505055807 49 9 3.0 8.0 0.00 0.00 0.00 85 1014.4
20260505055308 49 0 2.0 9.0 0.00 0.00 0.00 86 1014.4
20260505054808 48 2 4.0 9.0 0.00 0.00 0.00 86 1014.4
20260505054308 48 353 2.0 6.0 0.00 0.00 0.00 87 1014.4
20260505053807 48 331 2.0 6.0 0.00 0.00 0.00 87 1014.4
20260505053307 48 7 3.0 6.0 0.00 0.00 0.00 87 1014.4
20260505052808 48 344 2.0 7.0 0.00 0.00 0.00 87 1014.4
20260505052308 48 2 2.0 9.0 0.00 0.00 0.00 87 1014.4
20260505051308 48 1 3.0 7.0 0.00 0.00 0.00 87 1014.4
20260505050808 48 6 2.0 5.0 0.00 0.00 0.00 88 1014.5
20260505050308 48 2 2.0 5.0 0.00 0.00 0.00 88 1014.5
20260505041308 49 19 2.0 5.0 0.00 0.00 0.00 89 1014.2
20260505040307 48 24 2.0 6.0 0.00 0.00 0.00 89 1014.2
20260505035807 48 31 2.0 5.0 0.00 0.00 0.00 89 1014.2
20260505034807 48 14 2.0 5.0 0.00 0.00 0.00 89 1014.2
20260505034308 48 12 2.0 6.0 0.00 0.00 0.00 89 1014.1
20260505033807 48 9 2.0 5.0 0.00 0.00 0.00 89 1013.9
20260505033307 48 331 2.0 8.0 0.00 0.00 0.00 89 1014.0
20260505032807 48 16 1.0 6.0 0.00 0.00 0.00 89 1014.1
20260505032307 48 346 2.0 5.0 0.00 0.00 0.00 88 1014.1
20260505031808 48 343 2.0 6.0 0.00 0.00 0.00 88 1014.2
20260505030307 48 23 3.0 6.0 0.00 0.00 0.00 88 1014.3
20260505025807 48 354 2.0 3.0 0.00 0.00 0.00 88 1014.3
20260505025307 48 43 2.0 5.0 0.00 0.00 0.00 88 1014.4
20260505024808 48 335 1.0 2.0 0.00 0.00 0.00 88 1014.4
20260505023307 48 21 2.0 5.0 0.00 0.00 0.00 87 1014.4
20260505022807 49 2 1.0 3.0 0.00 0.00 0.00 87 1014.5
20260505022308 49 10 1.0 3.0 0.00 0.00 0.00 86 1014.5
20260505021808 49 7 0.0 2.0 0.00 0.00 0.00 86 1014.5
20260505020807 49 15 1.0 2.0 0.00 0.00 0.00 86 1014.6
20260505020308 49 42 0.0 1.0 0.00 0.00 0.00 86 1014.6
20260505015808 49 35 1.0 2.0 0.00 0.00 0.00 86 1014.6
20260505015307 49 66 1.0 3.0 0.00 0.00 0.00 86 1014.5
20260505014808 49 80 2.0 2.0 0.00 0.00 0.00 86 1014.6
20260505013808 50 42 1.0 2.0 0.00 0.00 0.00 85 1014.7
20260505012808 50 58 1.0 2.0 0.00 0.00 0.00 85 1014.7
20260505012307 50 69 1.0 2.0 0.00 0.00 0.00 85 1014.6
20260505011807 50 45 2.0 3.0 0.00 0.00 0.00 85 1014.8
20260505011308 50 31 1.0 3.0 0.00 0.00 0.00 84 1014.8
20260505010808 50 11 1.0 2.0 0.00 0.01 0.00 84 1014.8
20260505010307 51 12 1.0 3.0 0.00 0.01 0.00 84 1014.8
20260505005808 51 19 1.0 3.0 0.00 0.01 0.00 84 1014.8
20260505005307 51 14 0.0 0.0 0.00 0.01 0.00 84 1014.8
20260505004807 51 14 0.0 2.0 0.00 0.01 0.00 84 1014.8
20260505004307 51 17 1.0 3.0 0.00 0.01 0.00 84 1014.7
20260505003307 52 7 1.0 3.0 0.00 0.01 0.00 84 1014.7
20260505002808 52 12 1.0 3.0 0.00 0.01 0.00 84 1014.7
20260505001808 52 10 1.0 3.0 0.00 0.01 0.00 83 1014.8
20260505001307 52 340 0.0 0.0 0.00 0.01 0.00 83 1014.9
20260505000807 53 340 0.0 0.0 0.00 0.01 0.00 83 1014.8
20260505000307 53 340 1.0 2.0 0.00 0.01 0.00 83 1014.9
20260504235807 53 349 1.0 2.0 0.00 0.01 0.00 83 1014.8
20260504235307 53 19 0.0 2.0 0.00 0.01 0.00 83 1014.9
20260504234308 53 17 1.0 3.0 0.00 0.01 0.00 84 1015.0
20260504233308 53 11 1.0 3.0 0.00 0.01 0.00 83 1015.1
20260504232807 54 49 1.0 2.0 0.00 0.01 0.00 83 1015.1
20260504232308 54 39 1.0 2.0 0.00 0.01 0.00 83 1015.1
20260504231807 54 65 1.0 3.0 0.00 0.01 0.00 83 1015.1
20260504231307 54 76 1.0 3.0 0.00 0.01 0.00 83 1015.0
20260504230817 54 74 2.0 3.0 0.00 0.01 0.00 83 1014.9
20260504225808 54 55 1.0 2.0 0.00 0.01 0.01 83 1014.9
20260504225308 54 57 1.0 3.0 0.00 0.01 0.01 83 1015.0
20260504224808 54 74 0.0 3.0 0.00 0.01 0.01 83 1015.0
20260504224307 55 63 0.0 2.0 0.00 0.01 0.01 83 1015.0
20260504223808 55 70 2.0 3.0 0.00 0.01 0.01 83 1015.0
20260504223308 55 32 0.0 2.0 0.00 0.01 0.01 82 1015.1
20260504222807 55 55 0.0 2.0 0.00 0.01 0.01 82 1015.0
20260504222307 55 64 1.0 2.0 0.00 0.01 0.01 82 1015.0
20260504221308 55 27 0.0 3.0 0.00 0.01 0.01 82 1015.0
20260504220808 55 19 1.0 3.0 0.00 0.01 0.01 82 1015.1
20260504220307 55 24 2.0 3.0 0.00 0.01 0.01 82 1015.1
20260504215808 56 21 1.0 2.0 0.00 0.01 0.01 81 1015.0
20260504215308 56 72 2.0 3.0 0.00 0.01 0.01 81 1015.1
20260504214808 56 74 1.0 2.0 0.00 0.01 0.01 81 1015.1
20260504214307 56 88 1.0 2.0 0.00 0.01 0.01 81 1015.2
20260504213808 56 61 0.0 0.0 0.00 0.01 0.01 81 1015.1
20260504213308 56 69 0.0 2.0 0.00 0.01 0.01 81 1015.1
20260504212808 56 80 2.0 5.0 0.00 0.01 0.01 81 1015.1
20260504212308 56 81 2.0 6.0 0.00 0.01 0.01 81 1015.2
20260504211807 56 90 2.0 3.0 0.00 0.01 0.01 81 1015.2
20260504211307 56 78 2.0 5.0 0.00 0.01 0.01 81 1015.2
20260504210808 56 72 3.0 5.0 0.00 0.01 0.01 80 1015.2
20260504210308 56 67 2.0 6.0 0.00 0.01 0.01 80 1015.2
20260504205308 57 71 2.0 3.0 0.00 0.02 0.01 80 1015.2
20260504204808 57 52 2.0 5.0 0.00 0.02 0.01 80 1015.2
20260504204307 57 79 3.0 5.0 0.00 0.02 0.01 79 1015.2
20260504203807 57 63 1.0 5.0 0.00 0.02 0.01 79 1015.2
20260504203307 57 83 3.0 7.0 0.00 0.03 0.01 79 1015.2
20260504202807 57 86 2.0 3.0 0.00 0.05 0.01 79 1015.2
20260504202307 57 85 2.0 6.0 0.00 0.05 0.01 79 1015.2
20260504201807 58 83 3.0 6.0 0.00 0.06 0.01 78 1015.1
20260504201308 58 83 2.0 5.0 0.00 0.06 0.01 78 1015.0
20260504200807 58 83 3.0 5.0 0.00 0.06 0.01 78 1014.9
20260504194807 59 101 2.0 6.0 0.00 0.06 0.01 76 1014.7
20260504194308 59 111 3.0 5.0 0.00 0.06 0.01 75 1014.7
20260504193808 59 108 2.0 3.0 0.00 0.06 0.01 74 1014.6
20260504192807 59 55 1.0 7.0 0.00 0.06 0.01 73 1014.5
20260504192308 59 35 2.0 6.0 0.00 0.06 0.01 73 1014.4
20260504191808 59 19 2.0 3.0 0.00 0.06 0.01 73 1014.4
20260504191307 59 55 2.0 5.0 0.00 0.06 0.01 73 1014.4
20260504190808 59 63 2.0 5.0 0.00 0.06 0.01 73 1014.3
20260504190308 59 44 2.0 5.0 0.00 0.06 0.01 73 1014.3
20260504185808 60 67 2.0 5.0 0.00 0.06 0.01 72 1014.3
20260504185307 60 90 3.0 6.0 0.00 0.06 0.01 73 1014.3
20260504184807 60 64 3.0 6.0 0.00 0.07 0.01 73 1014.3
20260504184308 60 68 3.0 5.0 0.00 0.08 0.01 73 1014.3
20260504183808 60 84 3.0 8.0 0.00 0.09 0.01 73 1014.3
20260504183307 60 96 3.0 7.0 0.00 0.13 0.01 73 1014.3
20260504182308 60 68 2.0 8.0 0.00 0.20 0.01 73 1014.2
20260504181808 60 109 3.0 7.0 0.00 0.22 0.01 73 1014.1
20260504181307 60 69 3.0 6.0 0.00 0.22 0.01 73 1014.1
20260504180807 60 91 3.0 7.0 0.00 0.22 0.01 73 1014.1
20260504180307 60 84 2.0 7.0 0.00 0.22 0.01 73 1014.1
20260504175808 60 54 1.0 3.0 0.00 0.22 0.01 72 1014.0
20260504175308 60 66 3.0 8.0 0.00 0.22 0.01 72 1014.1
20260504174807 60 53 2.0 7.0 0.00 0.22 0.01 71 1014.0
20260504174307 60 75 3.0 8.0 0.00 0.22 0.01 71 1014.0
20260504173808 60 82 2.0 7.0 0.00 0.22 0.01 73 1014.0
20260504173308 60 86 4.0 8.0 0.00 0.22 0.01 72 1013.9
20260504171807 60 69 5.0 8.0 0.00 0.22 0.01 72 1013.8
20260504171308 61 72 3.0 7.0 0.00 0.22 0.01 72 1013.9
20260504170307 60 75 4.0 8.0 0.00 0.25 0.01 73 1014.0
20260504150808 60 6 3.0 10.0 0.00 0.25 0.01 74 1014.4
20260504141308 60 49 3.0 12.0 0.00 0.25 0.01 77 1014.5
20260504140807 60 38 3.0 14.0 0.00 0.25 0.01 77 1014.6
20260504140307 60 34 4.0 12.0 0.00 0.25 0.01 76 1014.5
20260504130808 59 46 3.0 8.0 0.00 0.25 0.01 82 1014.6
20260504130308 59 25 5.0 12.0 0.00 0.25 0.01 81 1014.6